Home   Weather   Geesthacht   Past weeks

Flag for Germany Past Weather in Geesthacht, Schleswig-Holstein, Germany — Yesterday and Last 2 Weeks

Now
57 °F

Clear.


Feels Like: 57 °F
Forecast: 52 / 75 °F
Wind: 1 mph from North

Location: Hamburg-Fuhlsbuettel

Current Time: Aug 30, 2016 at 10:54:46 PM

Latest Report: Aug 30, 2016 at 10:20 PM


Visibility: 10 mi

Pressure: 30.27 "Hg

Humidity: 100%

Dew Point: 57 °F

Location of GeesthachtLocation

Past Weather in Geesthacht — Graph

°F

Geesthacht Temperature Yesterday

Maximum temperature yesterday: 68 °F (at 12:50 PM)
Minimum temperature yesterday: 54 °F (at 11:50 PM)
Average temperature yesterday: 63 °F

High & Low Weather Summary for the Past Weeks

 TemperatureHumidityPressure
High88 °F (Aug 25, 4:20 PM)100% (Aug 16, 12:20 AM)30.30 "Hg (Aug 16, 12:20 AM)
Low43 °F (Aug 17, 5:50 AM)29% (Aug 25, 5:20 PM)29.80 "Hg (Aug 20, 12:20 AM)
Average65 °F76%30.04 "Hg
* Reported Aug 15 9:20 PM — Aug 30 9:50 PM, Geesthacht, Weather by CustomWeather, © 2016

Note: Actual official high and low records may vary slightly from our data, if they occured in-between our weather recording intervals... More about our weather records

Advertising

Geesthacht Weather History for the Previous 24 Hours

Scroll right to see more
 ConditionsComfort  
Time TempWeatherWind HumidityBarometerVisibility
9:50 PM
Tue, Aug 30
59 °FClear.No wind94%30.27 "Hg10 mi
9:20 PM59 °FClear.1 mph94%30.27 "Hg10 mi
8:50 PM59 °FPassing clouds.1 mph94%30.27 "HgN/A
8:20 PM63 °FPassing clouds.2 mph77%30.27 "HgN/A
7:50 PM64 °FPassing clouds.5 mph73%30.27 "HgN/A
7:20 PM66 °FPassing clouds.8 mph68%30.24 "HgN/A
6:50 PM68 °FPassing clouds.8 mph60%30.24 "HgN/A
6:20 PM66 °FPassing clouds.9 mph68%30.27 "HgN/A
5:50 PM68 °FScattered clouds.9 mph64%30.27 "HgN/A
5:20 PM68 °FScattered clouds.8 mph60%30.27 "HgN/A
4:50 PM70 °FScattered clouds.10 mph57%30.27 "HgN/A
4:20 PM68 °FScattered clouds.9 mph60%30.27 "HgN/A
3:50 PM70 °FScattered clouds.6 mph57%30.27 "HgN/A
3:20 PM68 °FScattered clouds.7 mph60%30.27 "HgN/A
2:50 PM68 °FScattered clouds.10 mph56%30.27 "HgN/A
2:20 PM70 °FScattered clouds.8 mph60%30.30 "HgN/A
1:50 PM68 °FScattered clouds.9 mph60%30.30 "HgN/A
1:20 PM66 °FScattered clouds.8 mph64%30.30 "HgN/A
12:50 PM68 °FScattered clouds.12 mph64%30.30 "HgN/A
12:20 PM66 °FScattered clouds.12 mph68%30.30 "HgN/A
11:50 AM64 °FPartly sunny.10 mph68%30.30 "HgN/A
11:20 AM66 °FPartly sunny.9 mph73%30.30 "HgN/A
10:50 AM64 °FScattered clouds.9 mph73%30.30 "HgN/A
10:20 AM63 °FPassing clouds.12 mph77%30.27 "HgN/A
9:50 AM63 °FPassing clouds.9 mph77%30.27 "HgN/A
9:20 AM61 °FPassing clouds.9 mph83%30.27 "HgN/A
8:50 AM61 °FPassing clouds.8 mph77%30.27 "HgN/A
8:20 AM59 °FPassing clouds.6 mph82%30.24 "HgN/A
7:50 AM57 °FPassing clouds.6 mph88%30.24 "HgN/A
7:20 AM55 °FPassing clouds.6 mph94%30.24 "HgN/A
6:50 AM54 °FPassing clouds.6 mph94%30.24 "HgN/A
6:20 AM54 °FFog.5 mph94%30.24 "HgN/A
5:50 AM52 °FPassing clouds.5 mph100%30.21 "HgN/A
5:20 AM52 °FClear.5 mph94%30.21 "Hg10 mi
4:50 AM54 °FClear.5 mph94%30.21 "Hg10 mi
4:20 AM52 °FPassing clouds.2 mph94%30.21 "HgN/A
3:50 AM54 °FPassing clouds.3 mph94%30.21 "HgN/A
3:20 AM54 °FPassing clouds.5 mph94%30.21 "HgN/A
2:50 AM54 °FPassing clouds.3 mph94%30.21 "HgN/A
2:20 AM54 °FPassing clouds.3 mph94%30.21 "HgN/A
1:50 AM55 °FPassing clouds.1 mph88%30.21 "HgN/A
1:20 AM55 °FPassing clouds.5 mph88%30.21 "HgN/A
12:50 AM55 °FPassing clouds.3 mph88%30.18 "HgN/A
12:20 AM55 °FPassing clouds.3 mph88%30.18 "HgN/A
11:50 PM
Mon, Aug 29
54 °FPassing clouds.2 mph94%30.18 "HgN/A
11:20 PM55 °FClear.2 mph88%30.18 "Hg10 mi
10:50 PM55 °FClear.5 mph88%30.18 "Hg10 mi
10:20 PM57 °FPassing clouds.6 mph82%30.15 "HgN/A
Weather by CustomWeather, © 2016

See weather overviewHow to use our weather pages